Location: Mason
(37.5237°N, 89.2543°W)
Time: 08:21:47
(UTC+00:00)

H-2A R/B - Pass Details

Date: 24 January 2021
Orbit: 500 x 539 km, 97.3° (Epoch: 07 March)

Event Time Altitude Azimuth Distance (km) Brightness Sun altitude
Rises 12:26:27 0° 351° (N) 2,612 6.0 -8.2°
Reaches altitude 10° 12:29:10 10° 329° (NNW) 1,728 4.9 -7.7°
Maximum altitude 12:31:26 16° 291° (WNW) 1,414 4.3 -7.3°
Drops below altitude 10° 12:33:41 10° 254° (WSW) 1,733 4.9 -6.8°
Sets 12:36:26 0° 231° (SW) 2,623 6.0 -6.3°
